CZ-6A DEB, 55888

Orbit data source: Space-Track

CZ-6A DEB, 55888 is space debris in SSO originally from a launch on Fri, 11 Nov 2022 UTC launched from the Taiyaun Space Center, China (TSC). Debris objects in space refer to the collection of defunct objects orbiting the Earth. Examples of debris include non-operational satellites, rocket bodies, and fragments generated from explosions, collisions, or faulty payload assembly.

Loading next visibility...
Identifier
55888, 2022-151AAL
Orbit
SSO
Country
Flag of CNCN / PRC
Related business
Manufacturer
SAST
Mission
Spacecraft
Bus & Motor
Unknown
Mass
Unknown
Launch date (UTC)
2022-11-11 (4 years ago)
Launch vehicle
Unknown
Launch site
Taiyaun Space Center, China (TSC)
Object type
Payload
Rocket body
Debris
Shape & HBR
Unknown shape, 0.1 m
Radar Cross Section
Medium (>0.1 m² and <1 m²)

Expand to show TLE details & history
Last TLE update: 10 hours ago

TLE from 10 hours ago
0 CZ-6A DEB
1 55888U 22151AAL 26264.05868617  .00003345  00000-0  62453-3 0  9994
2 55888  98.4478 294.3605 0126914   0.0855   0.0345 14.60585975198477
Epoch: 2026-09-21T01:24Z
TLE epoch observation values (Epoch: 2026-09-21T01:24:30.485Z)
Latitude
0.00001°
Longitude
-86.71048°
Altitude
604.522 km
Speed
7.605 km/s
True Right ascension
19h 37m 26s
True Declination
0° 00' 00"
Sunlit
Object was in full shadow at epoch
Visualization orbit readout
Latitude
Unknown
Longitude
Unknown
Altitude
Unknown
Speed
Unknown
Apparent Right ascension
Unknown
Apparent Declination
Unknown
Sunlit
N/A
Visualization observer readout
Local Sidereal Time
04:02:54
Azimuth
Unknown
Elevation
Unknown
Doppler factor
Unknown
Orbital elements
Apogee altitude
778.058 km
Perigee altitude
598.69 km
Semi-major axis
7,066.511 km
Eccentricity
0.01269
Inclination
98.4478°
RAAN
294.3605°
Arg. of periapsis
0.0855°
True anomaly
0.03539°
Mean anomaly
0.0345°
Eccentric anomaly
0.03494°
Mean motion
3.65372 °/min
Orbital period
98.53 mins
BSTAR
0.00062453
Loading maneuver chart data...
Computing Atmospheric mass density...
Loading historical data...
Loading historical data...
Loading historical data...
Loading historical data...
Loading historical data...
Loading historical data...
Loading historical data...

Documentation

Showing up to 5 results
|